Cleveland Burke, OH

10:07 AM EDT on September 19, 2017 (GMT -0400)
Burke Lakefront

Weather History for KBKL - October, 2011

Change the Weather History Date:

Monday, October 10, 2011

  Actual Average Record
Temperature  
Mean Temperature 65 °F -  
Max Temperature 75 °F 63 °F 75 °F (2011)
Min Temperature 57 °F 49 °F 44 °F (2000)
Growing Degree Days 15 (Base 50)    
Moisture  
Dew Point 55 °F    
Average Humidity 70    
Maximum Humidity 87    
Minimum Humidity 50    
Precipitation  
Precipitation 0.00 in - - ()
Sea Level Pressure  
Sea Level Pressure 30.25 in    
Wind  
Wind Speed 4 mph (ESE)    
Max Wind Speed 9 mph    
Max Gust Speed -    
Visibility 10 miles    
Events      
Averages and records for this station are not official NWS values.
T = Trace of Precipitation, MM = Missing Value Source: NWS Daily Summary

Daily Weather History Graph

Daily Weather History Graph

Search for Another Location

Airport or City:

Trip Planner

Search our weather history database for the weather conditions in past years. The results will help you decide how hot, cold, wet, or windy it might be!

Date:

Astronomy

Oct. 10, 2011 Rise Set
Actual Time 7:32 AM EDT 6:53 PM EDT
Civil Twilight 7:05 AM EDT 7:21 PM EDT
Nautical Twilight 6:32 AM EDT 7:53 PM EDT
Astronomical Twilight 6:00 AM EDT 8:25 PM EDT
Moon 5:57 PM EDT (10/10) 6:12 AM EDT (10/10)
Length of Visible Light 12h 16m
Length of Day
11h 21m
Waxing Gibbous, 98% of the Moon is Illuminated
Oct 10
Waxing Gibbous
Oct 11
Full
Oct 19
Last Quarter
Oct 26
New
Nov 2
First Quarter

Hourly Weather History & Observations

Time (EDT) Temp. Dew Point Humidity Pressure Visibility Wind Dir Wind Speed Gust Speed Precip Events Conditions
12:53 AM 64.4 °F 53.6 °F 68% 30.31 in 10.0 mi SSE 9.2 mph - N/A   Clear
1:53 AM 64.0 °F 53.1 °F 67% 30.30 in 10.0 mi SSE 9.2 mph - N/A   Clear
2:53 AM 62.1 °F 52.0 °F 70% 30.30 in 10.0 mi SSE 4.6 mph - N/A   Clear
3:53 AM 61.0 °F 52.0 °F 72% 30.28 in 10.0 mi Calm Calm - N/A   Clear
4:53 AM 61.0 °F 52.0 °F 72% 30.29 in 10.0 mi Calm Calm - N/A   Clear
5:53 AM 57.9 °F 53.1 °F 84% 30.29 in 10.0 mi Calm Calm - N/A   Clear
6:53 AM 59.0 °F 52.0 °F 78% 30.29 in 10.0 mi Calm Calm - N/A   Clear
7:53 AM 60.1 °F 53.1 °F 78% 30.29 in 10.0 mi Calm Calm - N/A   Clear
8:53 AM 62.6 °F 53.6 °F 72% 30.30 in 10.0 mi Calm Calm - N/A   Clear
9:53 AM 64.9 °F 52.0 °F 63% 30.31 in 10.0 mi ESE 3.5 mph - N/A   Clear
10:53 AM 66.2 °F 53.6 °F 64% 30.31 in 10.0 mi SE 3.5 mph - N/A   Clear
11:53 AM 71.1 °F 55.0 °F 57% 30.30 in 10.0 mi Calm Calm - N/A   Clear
12:53 PM 73.4 °F 53.6 °F 50% 30.29 in 10.0 mi Calm Calm - N/A   Clear
1:53 PM 73.4 °F 57.2 °F 57% 30.26 in 10.0 mi WNW 3.5 mph - N/A   Clear
2:53 PM 71.1 °F 60.1 °F 68% 30.24 in 9.0 mi NE 4.6 mph - N/A   Clear
3:53 PM 69.1 °F 61.0 °F 75% 30.22 in 10.0 mi NE 6.9 mph - N/A   Overcast
4:53 PM 68.0 °F 60.1 °F 76% 30.20 in 10.0 mi NE 5.8 mph - N/A   Overcast
5:53 PM 69.8 °F 57.2 °F 64% 30.19 in 10.0 mi NE 4.6 mph - N/A   Mostly Cloudy
6:53 PM 64.0 °F 60.1 °F 87% 30.18 in 9.0 mi NE 5.8 mph - N/A   Scattered Clouds
7:53 PM 66.0 °F 54.0 °F 65% 30.18 in 10.0 mi East 4.6 mph - N/A   Clear
8:53 PM 64.9 °F 55.9 °F 73% 30.17 in 10.0 mi Calm Calm - N/A   Clear
9:53 PM 64.0 °F 55.0 °F 73% 30.17 in 10.0 mi SE 4.6 mph - N/A   Clear
10:53 PM 63.0 °F 55.0 °F 75% 30.16 in 10.0 mi SSE 6.9 mph - N/A   Clear
11:53 PM 62.1 °F 55.0 °F 78% 30.16 in 10.0 mi SSE 6.9 mph - N/A   Clear